Date,TemperatureHighF,TemperatureAvgF,TemperatureLowF,DewpointHighF,DewpointAvgF,DewpointLowF,HumidityHigh,HumidityAvg,HumidityLow,PressureMaxIn,PressureMinIn,WindSpeedMaxMPH,WindSpeedAvgMPH,GustSpeedMaxMPH,PrecipitationSumIn
2013-1-1,39.6,37.5,33.4,38.8,30.4,5.3,100,80,27,29.95,29.77,30,15,46,0.87
2013-1-2,34.4,28.6,25.6,34.1,24.1,4.8,100,84,38,30.10,29.82,8,3,25,0.00
2013-1-3,32.2,27.8,25.0,24.2,14.4,5.3,89,58,38,30.15,30.05,7,2,26,0.00
2013-1-4,29.3,24.0,19.2,16.6,14.8,13.4,79,68,52,30.23,30.09,33,10,43,0.01
2013-1-5,39.5,33.2,23.3,22.4,14.2,3.0,73,47,27,30.30,30.09,28,5,43,0.00
2013-1-10,55.6,49.0,43.5,28.0,13.9,-6.1,49,26,11,30.42,30.32,5,0,12,0.00
2013-1-11,55.3,44.0,33.8,53.3,41.3,26.6,100,91,58,30.28,29.95,16,6,35,0.09
2013-1-12,64.8,59.3,55.6,57.2,54.8,53.3,96,85,70,29.99,29.94,25,7,35,0.00
2013-1-13,64.8,57.7,54.4,54.3,51.9,49.2,93,82,57,29.92,29.83,16,7,36,0.00
2013-1-14,57.5,50.5,42.1,55.0,49.9,42.1,100,98,86,30.09,29.84,14,3,33,0.80
2013-1-15,42.5,35.7,31.2,42.5,35.7,31.2,100,100,100,30.14,29.97,7,1,11,1.44
2013-1-16,53.2,47.6,31.0,50.1,44.6,31.0,100,90,66,29.99,29.77,23,7,29,0.34
2013-1-17,41.2,31.4,26.0,39.8,29.0,22.0,99,91,59,30.08,29.82,17,2,32,0.34
2013-1-18,28.1,23.9,20.5,24.4,19.1,15.8,96,82,66,30.46,30.08,0,0,0,0.03
2013-1-19,41.1,33.5,27.2,24.4,20.3,10.2,81,60,28,30.37,29.93,17,6,34,0.07
2013-1-20,41.9,36.6,32.7,26.4,21.7,11.8,71,56,33,29.98,29.85,47,16,57,0.08
2013-1-21,38.9,31.5,19.4,19.5,13.3,0.7,53,47,27,29.95,29.75,27,10,48,0.00
2013-1-22,18.9,11.7,6.7,2.9,-8.0,-11.6,53,40,29,30.19,29.83,23,4,29,0.00
2013-1-23,27.6,13.9,7.2,16.7,-1.8,-9.2,66,50,30,30.25,29.92,24,6,34,0.00
2013-1-24,29.7,16.2,11.9,19.0,2.4,-4.5,69,54,42,30.41,29.85,21,5,33,0.00
2013-1-25,27.8,17.5,8.3,26.4,12.4,-4.0,96,81,53,30.43,29.95,31,4,31,0.00
2013-1-26,29.0,23.9,17.8,26.1,19.8,14.1,95,84,67,30.32,29.95,20,5,31,0.03
2013-1-27,28.5,21.5,15.7,21.9,16.1,10.6,87,80,70,30.50,30.32,11,1,16,0.02
2013-1-28,54.7,43.7,27.9,43.0,36.3,20.7,99,76,59,30.34,30.00,33,10,42,0.10
2013-1-29,64.8,54.5,48.0,52.5,45.9,42.2,94,74,50,30.03,29.80,24,8,37,0.00
2013-1-30,57.8,54.1,42.2,56.6,53.1,40.0,100,97,83,29.80,29.15,33,11,44,2.91
2013-1-31,44.3,29.4,23.6,40.5,23.2,11.6,95,78,55,29.84,29.22,31,12,54,0.05